Year,Month,Day,Hour,Minute,Value (Times are PST for temperature in C)
2017,06,28,00,00,13.20
2017,06,28,00,01,13.20
2017,06,28,00,02,13.20
2017,06,28,00,03,13.10
2017,06,28,00,04,13.10
2017,06,28,00,05,13.10
2017,06,28,00,06,13.10
2017,06,28,00,07,13.10
2017,06,28,00,08,13.00
2017,06,28,00,09,13.00
2017,06,28,00,10,13.00
2017,06,28,00,11,13.00
2017,06,28,00,12,12.90
2017,06,28,00,13,12.90
2017,06,28,00,14,12.90
2017,06,28,00,15,12.90
2017,06,28,00,16,12.80
2017,06,28,00,17,12.80
2017,06,28,00,18,12.80
2017,06,28,00,19,12.80
2017,06,28,00,20,12.80
2017,06,28,00,21,12.80
2017,06,28,00,22,12.80
2017,06,28,00,23,12.80
2017,06,28,00,24,12.80
2017,06,28,00,25,12.80
2017,06,28,00,26,12.80
2017,06,28,00,27,12.80
2017,06,28,00,28,12.80
2017,06,28,00,29,12.80
2017,06,28,00,30,12.80
2017,06,28,00,31,12.80
2017,06,28,00,32,12.80
2017,06,28,00,33,12.80
2017,06,28,00,34,12.80
2017,06,28,00,35,12.80
2017,06,28,00,37,12.70
2017,06,28,00,38,12.70
2017,06,28,00,39,12.70
2017,06,28,00,41,12.70
2017,06,28,00,42,12.70
2017,06,28,00,43,12.70
2017,06,28,00,44,12.70
2017,06,28,00,46,12.60
2017,06,28,00,47,12.60
2017,06,28,00,48,12.60
2017,06,28,00,49,12.60
2017,06,28,00,51,12.60
2017,06,28,00,52,12.60
2017,06,28,00,53,12.60
2017,06,28,00,54,12.60
2017,06,28,00,56,12.60
2017,06,28,00,57,12.60
2017,06,28,00,58,12.60
2017,06,28,00,59,12.60
2017,06,28,01,01,12.60
2017,06,28,01,02,12.60
2017,06,28,01,03,12.50
2017,06,28,01,04,12.50
2017,06,28,01,06,12.50
2017,06,28,01,07,12.50
2017,06,28,01,08,12.50
2017,06,28,01,09,12.50
2017,06,28,01,11,12.50
2017,06,28,01,12,12.50
2017,06,28,01,13,12.50
2017,06,28,01,14,12.50
2017,06,28,01,16,12.50
2017,06,28,01,17,12.50
2017,06,28,01,18,12.50
2017,06,28,01,19,12.50
2017,06,28,01,21,12.50
2017,06,28,01,22,12.50
2017,06,28,01,23,12.40
2017,06,28,01,24,12.40
2017,06,28,01,26,12.40
2017,06,28,01,27,12.40
2017,06,28,01,28,12.40
2017,06,28,01,29,12.40
2017,06,28,01,31,12.40
2017,06,28,01,32,12.40
2017,06,28,01,33,12.40
2017,06,28,01,34,12.40
2017,06,28,01,36,12.40
2017,06,28,01,37,12.40
2017,06,28,01,38,12.40
2017,06,28,01,39,12.40
2017,06,28,01,41,12.30
2017,06,28,01,42,12.30
2017,06,28,01,43,12.30
2017,06,28,01,44,12.30
2017,06,28,01,46,12.30
2017,06,28,01,47,12.30
2017,06,28,01,48,12.30
2017,06,28,01,49,12.30
2017,06,28,01,51,12.30
2017,06,28,01,52,12.30
2017,06,28,01,53,12.30
2017,06,28,01,54,12.30
2017,06,28,01,56,12.30
2017,06,28,01,57,12.30
2017,06,28,01,58,12.30
2017,06,28,01,59,12.30
2017,06,28,02,00,12.30
2017,06,28,02,01,12.30
2017,06,28,02,02,12.30
2017,06,28,02,03,12.30
2017,06,28,02,04,12.30
2017,06,28,02,06,12.30
2017,06,28,02,07,12.30
2017,06,28,02,08,12.30
2017,06,28,02,09,12.20
2017,06,28,02,10,12.20
2017,06,28,02,11,12.20
2017,06,28,02,12,12.20
2017,06,28,02,13,12.20
2017,06,28,02,14,12.20
2017,06,28,02,15,12.20
2017,06,28,02,16,12.20
2017,06,28,02,17,12.20
2017,06,28,02,18,12.20
2017,06,28,02,19,12.20
2017,06,28,02,20,12.10
2017,06,28,02,21,12.10
2017,06,28,02,22,12.10
2017,06,28,02,23,12.10
2017,06,28,02,24,12.10
2017,06,28,02,25,12.10
2017,06,28,02,26,12.10
2017,06,28,02,27,12.10
2017,06,28,02,28,12.10
2017,06,28,02,29,12.10
2017,06,28,02,30,12.10
2017,06,28,02,31,12.10
2017,06,28,02,32,12.00
2017,06,28,02,33,12.00
2017,06,28,02,34,12.00
2017,06,28,02,35,12.00
2017,06,28,02,36,12.00
2017,06,28,02,37,12.00
2017,06,28,02,38,12.00
2017,06,28,02,39,12.00
2017,06,28,02,40,11.90
2017,06,28,02,41,11.90
2017,06,28,02,42,11.90
2017,06,28,02,43,11.90
2017,06,28,02,44,11.90
2017,06,28,02,45,11.90
2017,06,28,02,46,11.90
2017,06,28,02,47,11.80
2017,06,28,02,48,11.80
2017,06,28,02,49,11.80
2017,06,28,02,50,11.80
2017,06,28,02,51,11.80
2017,06,28,02,52,11.80
2017,06,28,02,53,11.80
2017,06,28,02,54,11.80
2017,06,28,02,55,11.80
2017,06,28,02,56,11.80
2017,06,28,02,57,11.80
2017,06,28,02,58,11.80
2017,06,28,02,59,11.80
2017,06,28,03,00,11.80
2017,06,28,03,01,11.80
2017,06,28,03,03,11.70
2017,06,28,03,04,11.70
2017,06,28,03,06,11.70
2017,06,28,03,07,11.70
2017,06,28,03,08,11.70
2017,06,28,03,09,11.70
2017,06,28,03,11,11.70
2017,06,28,03,12,11.70
2017,06,28,03,13,11.70
2017,06,28,03,14,11.70
2017,06,28,03,16,11.60
2017,06,28,03,17,11.60
2017,06,28,03,18,11.60
2017,06,28,03,19,11.60
2017,06,28,03,21,11.60
2017,06,28,03,22,11.60
2017,06,28,03,23,11.60
2017,06,28,03,24,11.60
2017,06,28,03,26,11.60
2017,06,28,03,27,11.60
2017,06,28,03,28,11.60
2017,06,28,03,29,11.60
2017,06,28,03,31,11.60
2017,06,28,03,32,11.60
2017,06,28,03,33,11.60
2017,06,28,03,34,11.60
2017,06,28,04,26,11.40
2017,06,28,04,27,11.40
2017,06,28,04,28,11.40
2017,06,28,04,29,11.40
2017,06,28,04,30,11.40
2017,06,28,04,32,11.40
2017,06,28,04,33,11.40
2017,06,28,04,34,11.40
2017,06,28,04,36,11.40
2017,06,28,04,37,11.40
2017,06,28,04,38,11.40
2017,06,28,04,39,11.40
2017,06,28,04,41,11.40
2017,06,28,04,42,11.30
2017,06,28,04,43,11.30
2017,06,28,04,44,11.30
2017,06,28,04,46,11.30
2017,06,28,04,47,11.30
2017,06,28,04,48,11.30
2017,06,28,04,49,11.30
2017,06,28,04,51,11.30
2017,06,28,04,52,11.20
2017,06,28,04,53,11.20
2017,06,28,04,54,11.20
2017,06,28,04,56,11.20
2017,06,28,04,57,11.20
2017,06,28,04,58,11.20
2017,06,28,04,59,11.20
2017,06,28,05,01,11.10
2017,06,28,05,02,11.10
2017,06,28,05,03,11.10
2017,06,28,05,04,11.10
2017,06,28,05,06,11.10
2017,06,28,05,07,11.10
2017,06,28,05,08,11.10
2017,06,28,05,09,11.10
2017,06,28,05,11,11.10
2017,06,28,05,12,11.10
2017,06,28,05,13,11.10
2017,06,28,05,14,11.10
2017,06,28,05,16,11.10
2017,06,28,05,17,11.10
2017,06,28,05,18,11.10
2017,06,28,05,19,11.10
2017,06,28,05,21,11.10
2017,06,28,05,22,11.10
2017,06,28,05,23,11.10
2017,06,28,05,24,11.10
2017,06,28,05,26,11.10
2017,06,28,05,27,11.10
2017,06,28,05,28,11.10
2017,06,28,05,29,11.10
2017,06,28,05,31,11.10
2017,06,28,05,32,11.10
2017,06,28,05,33,11.10
2017,06,28,05,34,11.10
2017,06,28,05,36,11.10
2017,06,28,05,37,11.10
2017,06,28,05,38,11.10
2017,06,28,05,39,11.10
2017,06,28,05,41,11.10
2017,06,28,05,42,11.10
2017,06,28,05,43,11.10
2017,06,28,05,44,11.10
2017,06,28,05,46,11.10
2017,06,28,05,47,11.10
2017,06,28,05,48,11.10
2017,06,28,05,49,11.10
2017,06,28,05,51,11.20
2017,06,28,05,52,11.20
2017,06,28,05,53,11.20
2017,06,28,05,54,11.20
2017,06,28,05,55,11.20
2017,06,28,05,56,11.20
2017,06,28,05,57,11.30
2017,06,28,05,58,11.30
2017,06,28,05,59,11.30
2017,06,28,06,01,11.30
2017,06,28,06,02,11.30
2017,06,28,06,03,11.30
2017,06,28,06,04,11.30
2017,06,28,06,06,11.40
2017,06,28,06,07,11.40
2017,06,28,06,08,11.40
2017,06,28,06,09,11.40
2017,06,28,06,10,11.40
2017,06,28,06,11,11.40
2017,06,28,06,12,11.40
2017,06,28,06,13,11.40
2017,06,28,06,14,11.40
2017,06,28,06,15,11.40
2017,06,28,06,16,11.40
2017,06,28,06,17,11.40
2017,06,28,06,18,11.40
2017,06,28,06,19,11.40
2017,06,28,06,20,11.40
2017,06,28,06,21,11.40
2017,06,28,06,22,11.60
2017,06,28,06,23,11.60
2017,06,28,06,24,11.60
2017,06,28,06,25,11.60
2017,06,28,06,26,11.60
2017,06,28,06,27,11.60
2017,06,28,06,28,11.60
2017,06,28,06,29,11.60
2017,06,28,06,30,11.60
2017,06,28,06,31,11.60
2017,06,28,06,32,11.70
2017,06,28,06,33,11.70
2017,06,28,06,34,11.70
2017,06,28,06,35,11.70
2017,06,28,06,36,11.70
2017,06,28,06,37,11.70
2017,06,28,06,38,11.70
2017,06,28,06,39,11.70
2017,06,28,06,40,11.70
2017,06,28,06,41,11.70
2017,06,28,06,42,11.70
2017,06,28,06,43,11.70
2017,06,28,06,44,11.70
2017,06,28,06,45,11.70
2017,06,28,06,46,11.70
2017,06,28,06,47,11.70
2017,06,28,06,48,11.70
2017,06,28,06,49,11.70
2017,06,28,06,50,11.80
2017,06,28,06,51,11.80
2017,06,28,06,52,11.80
2017,06,28,06,53,11.80
2017,06,28,06,54,11.80
2017,06,28,06,55,11.80
2017,06,28,06,56,11.80
2017,06,28,06,57,11.90
2017,06,28,06,58,11.90
2017,06,28,06,59,11.90
2017,06,28,07,00,12.00
2017,06,28,07,01,12.00
2017,06,28,07,02,12.00
2017,06,28,07,03,12.10
2017,06,28,07,04,12.10
2017,06,28,07,05,12.10
2017,06,28,07,06,12.10
2017,06,28,07,07,12.10
2017,06,28,07,08,12.10
2017,06,28,07,09,12.10
2017,06,28,07,10,12.10
2017,06,28,07,11,12.10
2017,06,28,07,12,12.10
2017,06,28,07,13,12.10
2017,06,28,07,14,12.00
2017,06,28,07,15,12.00
2017,06,28,07,16,12.00
2017,06,28,07,17,12.00
2017,06,28,07,18,12.00
2017,06,28,07,19,12.00
2017,06,28,07,20,12.00
2017,06,28,07,22,12.00
2017,06,28,07,23,12.00
2017,06,28,07,24,12.00
2017,06,28,07,26,12.00
2017,06,28,07,27,12.00
2017,06,28,07,28,12.00
2017,06,28,07,29,12.00
2017,06,28,07,31,12.00
2017,06,28,07,32,12.00
2017,06,28,07,33,12.10
2017,06,28,07,34,12.10
2017,06,28,07,36,12.10
2017,06,28,07,37,12.10
2017,06,28,07,38,12.10
2017,06,28,07,39,12.10
2017,06,28,07,41,12.10
2017,06,28,07,42,12.20
2017,06,28,07,43,12.20
2017,06,28,07,44,12.20
2017,06,28,07,46,12.20
2017,06,28,07,47,12.20
2017,06,28,07,48,12.20
2017,06,28,07,49,12.30
2017,06,28,07,51,12.30
2017,06,28,07,52,12.30
2017,06,28,07,53,12.30
2017,06,28,07,54,12.30
2017,06,28,07,56,12.30
2017,06,28,07,57,12.30
2017,06,28,07,58,12.30
2017,06,28,07,59,12.30
2017,06,28,08,01,12.40
2017,06,28,08,02,12.40
2017,06,28,08,03,12.40
2017,06,28,08,04,12.50
2017,06,28,08,06,12.50
2017,06,28,08,07,12.60
2017,06,28,08,08,12.60
2017,06,28,08,09,12.60
2017,06,28,08,11,12.70
2017,06,28,08,12,12.70
2017,06,28,08,13,12.80
2017,06,28,08,14,12.80
2017,06,28,08,16,12.80
2017,06,28,08,17,12.80
2017,06,28,08,18,12.80
2017,06,28,08,19,12.90
2017,06,28,08,21,13.00
2017,06,28,08,22,13.10
2017,06,28,08,23,13.10
2017,06,28,08,24,13.20
2017,06,28,08,26,13.30
2017,06,28,08,27,13.40
2017,06,28,08,28,13.50
2017,06,28,08,29,13.60
2017,06,28,08,31,13.70
2017,06,28,08,32,13.80
2017,06,28,08,33,13.90
2017,06,28,08,34,14.00
2017,06,28,08,36,14.20
2017,06,28,08,37,14.20
2017,06,28,08,38,14.20
2017,06,28,08,39,14.30
2017,06,28,08,41,14.40
2017,06,28,08,42,14.50
2017,06,28,08,43,14.50
2017,06,28,08,44,14.60
2017,06,28,08,45,14.60
2017,06,28,08,46,14.60
2017,06,28,08,47,14.70
2017,06,28,08,48,14.70
2017,06,28,08,49,14.80
2017,06,28,08,50,14.80
2017,06,28,08,51,14.80
2017,06,28,08,52,14.80
2017,06,28,08,53,14.80
2017,06,28,08,54,14.80
2017,06,28,08,55,14.90
2017,06,28,08,56,14.90
2017,06,28,08,57,15.00
2017,06,28,08,58,15.00
2017,06,28,08,59,15.10
2017,06,28,09,00,15.10
2017,06,28,09,01,15.20
2017,06,28,09,02,15.30
2017,06,28,09,03,15.30
2017,06,28,09,04,15.30
2017,06,28,09,06,15.40
2017,06,28,09,07,15.50
2017,06,28,09,08,15.50
2017,06,28,09,09,15.60
2017,06,28,09,10,15.70
2017,06,28,09,11,15.80
2017,06,28,09,12,15.80
2017,06,28,09,13,15.80
2017,06,28,09,14,15.90
2017,06,28,09,15,16.10
2017,06,28,09,16,16.10
2017,06,28,09,17,16.20
2017,06,28,09,18,16.20
2017,06,28,09,19,16.30
2017,06,28,09,20,16.40
2017,06,28,09,21,16.40
2017,06,28,09,22,16.40
2017,06,28,09,23,16.40
2017,06,28,09,24,16.40
2017,06,28,09,25,16.40
2017,06,28,09,26,16.60
2017,06,28,09,27,16.60
2017,06,28,09,28,16.60
2017,06,28,09,29,16.70
2017,06,28,09,30,16.70
2017,06,28,09,31,16.70
2017,06,28,09,32,16.70
2017,06,28,09,33,16.70
2017,06,28,09,34,16.70
2017,06,28,09,35,16.70
2017,06,28,09,36,16.70
2017,06,28,09,37,16.70
2017,06,28,09,38,16.80
2017,06,28,09,39,16.80
2017,06,28,09,40,16.80
2017,06,28,09,41,16.90
2017,06,28,09,42,16.90
2017,06,28,09,43,17.00
2017,06,28,09,44,17.00
2017,06,28,09,45,17.00
2017,06,28,09,46,17.10
2017,06,28,09,47,17.10
2017,06,28,09,48,17.10
2017,06,28,09,49,17.10
2017,06,28,09,50,17.10
2017,06,28,09,51,17.10
2017,06,28,09,52,17.20
2017,06,28,09,53,17.20
2017,06,28,09,54,17.20
2017,06,28,09,55,17.30
2017,06,28,09,56,17.30
2017,06,28,09,57,17.30
2017,06,28,09,58,17.20
2017,06,28,09,59,17.20
2017,06,28,10,00,17.20
2017,06,28,10,01,17.20
2017,06,28,10,02,17.20
2017,06,28,10,03,17.20
2017,06,28,10,04,17.20
2017,06,28,10,05,17.30
2017,06,28,10,07,17.30
2017,06,28,10,08,17.30
2017,06,28,10,09,17.30
2017,06,28,10,11,17.40
2017,06,28,10,12,17.40
2017,06,28,10,13,17.40
2017,06,28,10,14,17.40
2017,06,28,10,16,17.40
2017,06,28,10,17,17.40
2017,06,28,10,18,17.40
2017,06,28,10,19,17.40
2017,06,28,10,21,17.50
2017,06,28,10,22,17.50
2017,06,28,10,23,17.60
2017,06,28,10,24,17.60
2017,06,28,10,26,17.70
2017,06,28,10,27,17.70
2017,06,28,10,28,17.70
2017,06,28,10,29,17.70
2017,06,28,10,31,17.50
2017,06,28,10,32,17.40
2017,06,28,10,33,17.30
2017,06,28,10,34,17.20
2017,06,28,10,36,17.00
2017,06,28,10,37,16.90
2017,06,28,10,38,16.80
2017,06,28,10,39,16.80
2017,06,28,10,41,16.70
2017,06,28,10,42,16.70
2017,06,28,10,43,16.70
2017,06,28,10,44,16.70
2017,06,28,10,46,16.60
2017,06,28,10,47,16.60
2017,06,28,10,48,16.60
2017,06,28,10,49,16.60
2017,06,28,10,51,16.70
2017,06,28,10,52,16.70
2017,06,28,10,53,16.70
2017,06,28,10,54,16.70
2017,06,28,10,56,16.60
2017,06,28,10,57,16.40
2017,06,28,10,58,16.40
2017,06,28,10,59,16.40
2017,06,28,11,01,16.40
2017,06,28,11,02,16.40
2017,06,28,11,03,16.40
2017,06,28,11,04,16.40
2017,06,28,11,06,16.40
2017,06,28,11,07,16.40
2017,06,28,11,08,16.40
2017,06,28,11,09,16.40
2017,06,28,11,11,16.40
2017,06,28,11,12,16.40
2017,06,28,11,13,16.40
2017,06,28,11,14,16.40
2017,06,28,11,16,16.40
2017,06,28,11,17,16.40
2017,06,28,11,18,16.40
2017,06,28,11,19,16.40
2017,06,28,11,21,16.40
2017,06,28,11,22,16.60
2017,06,28,11,23,16.60
2017,06,28,11,24,16.60
2017,06,28,11,26,16.70
2017,06,28,11,27,16.70
2017,06,28,11,28,16.70
2017,06,28,11,29,16.80
2017,06,28,11,31,16.90
2017,06,28,11,32,16.90
2017,06,28,11,33,16.90
2017,06,28,11,34,16.90
2017,06,28,11,36,17.00
2017,06,28,11,37,17.00
2017,06,28,11,38,17.10
2017,06,28,11,39,17.20
2017,06,28,11,40,17.20
2017,06,28,11,41,17.30
2017,06,28,11,42,17.30
2017,06,28,11,43,17.30
2017,06,28,11,44,17.30
2017,06,28,11,45,17.30
2017,06,28,11,46,17.30
2017,06,28,11,47,17.40
2017,06,28,11,48,17.40
2017,06,28,11,49,17.40
2017,06,28,11,50,17.40
2017,06,28,11,51,17.50
2017,06,28,11,52,17.50
2017,06,28,11,53,17.60
2017,06,28,11,54,17.60
2017,06,28,11,55,17.60
2017,06,28,11,56,17.60
2017,06,28,11,57,17.60
2017,06,28,11,58,17.60
2017,06,28,11,59,17.60
2017,06,28,12,00,17.60
2017,06,28,12,01,17.50
2017,06,28,12,02,17.40
2017,06,28,12,03,17.40
2017,06,28,12,04,17.40
2017,06,28,12,05,17.40
2017,06,28,12,06,17.40
2017,06,28,12,07,17.30
2017,06,28,12,08,17.30
2017,06,28,12,09,17.30
2017,06,28,12,10,17.30
2017,06,28,12,11,17.30
2017,06,28,12,12,17.20
2017,06,28,12,13,17.10
2017,06,28,12,14,17.00
2017,06,28,12,15,17.00
2017,06,28,12,16,17.00
2017,06,28,12,17,17.10
2017,06,28,12,18,17.10
2017,06,28,12,19,17.20
2017,06,28,12,20,17.30
2017,06,28,12,21,17.30
2017,06,28,12,22,17.30
2017,06,28,12,23,17.40
2017,06,28,12,24,17.50
2017,06,28,12,25,17.60
2017,06,28,12,26,17.70
2017,06,28,12,27,17.70
2017,06,28,12,28,17.80
2017,06,28,12,29,17.80
2017,06,28,12,30,17.90
2017,06,28,12,31,17.90
2017,06,28,12,32,17.90
2017,06,28,12,33,18.10
2017,06,28,12,34,18.10
2017,06,28,12,35,18.20
2017,06,28,12,36,18.20
2017,06,28,12,37,18.20
2017,06,28,12,38,18.20
2017,06,28,12,39,18.20
2017,06,28,12,40,18.20
2017,06,28,12,41,18.30
2017,06,28,12,42,18.30
2017,06,28,12,43,18.30
2017,06,28,12,44,18.30
2017,06,28,12,45,18.30
2017,06,28,12,46,18.30
2017,06,28,12,47,18.30
2017,06,28,12,48,18.30
2017,06,28,12,49,18.20
2017,06,28,12,50,18.20
2017,06,28,12,51,18.20
2017,06,28,12,52,18.20
2017,06,28,12,54,18.10
2017,06,28,12,55,17.90
2017,06,28,12,57,17.90
2017,06,28,12,58,17.90
2017,06,28,12,59,17.90
2017,06,28,13,00,17.90
2017,06,28,13,02,17.90
2017,06,28,13,03,17.90
2017,06,28,13,04,17.90
2017,06,28,13,06,17.90
2017,06,28,13,07,17.90
2017,06,28,13,08,17.90
2017,06,28,13,09,17.90
2017,06,28,13,11,18.10
2017,06,28,13,12,18.10
2017,06,28,13,13,18.10
2017,06,28,13,14,18.10
2017,06,28,13,16,18.10
2017,06,28,13,17,18.20
2017,06,28,13,18,18.20
2017,06,28,13,19,18.20
2017,06,28,13,21,18.20
2017,06,28,13,22,18.30
2017,06,28,13,23,18.30
2017,06,28,13,24,18.40
2017,06,28,13,26,18.40
2017,06,28,13,27,18.40
2017,06,28,13,28,18.40
2017,06,28,13,29,18.40
2017,06,28,13,31,18.40
2017,06,28,13,32,18.40
2017,06,28,13,33,18.40
2017,06,28,13,34,18.30
2017,06,28,13,36,18.30
2017,06,28,13,37,18.30
2017,06,28,13,38,18.20
2017,06,28,13,39,18.20
2017,06,28,13,41,18.20
2017,06,28,13,42,18.20
2017,06,28,13,43,18.20
2017,06,28,13,44,18.20
2017,06,28,13,46,18.20
2017,06,28,13,47,18.20
2017,06,28,13,48,18.20
2017,06,28,13,49,18.20
2017,06,28,13,51,18.20
2017,06,28,13,52,18.20
2017,06,28,13,53,18.20
2017,06,28,13,54,18.20
2017,06,28,13,56,18.20
2017,06,28,13,57,18.20
2017,06,28,13,58,18.30
2017,06,28,13,59,18.30
2017,06,28,14,01,18.30
2017,06,28,14,02,18.30
2017,06,28,14,03,18.30
2017,06,28,14,04,18.30
2017,06,28,14,06,18.30
2017,06,28,14,07,18.30
2017,06,28,14,08,18.30
2017,06,28,14,09,18.30
2017,06,28,14,11,18.30
2017,06,28,14,12,18.30
2017,06,28,14,13,18.30
2017,06,28,14,14,18.30
2017,06,28,14,16,18.30
2017,06,28,14,17,18.30
2017,06,28,14,18,18.30
2017,06,28,14,19,18.30
2017,06,28,14,21,18.40
2017,06,28,14,22,18.40
2017,06,28,14,23,18.40
2017,06,28,14,24,18.40
2017,06,28,14,25,18.50
2017,06,28,14,26,18.50
2017,06,28,14,27,18.60
2017,06,28,14,28,18.60
2017,06,28,14,29,18.70
2017,06,28,14,31,18.70
2017,06,28,14,32,18.70
2017,06,28,14,33,18.70
2017,06,28,14,34,18.70
2017,06,28,14,36,18.70
2017,06,28,14,37,18.70
2017,06,28,14,38,18.70
2017,06,28,14,39,18.70
2017,06,28,14,40,18.70
2017,06,28,14,41,18.70
2017,06,28,14,42,18.70
2017,06,28,14,43,18.70
2017,06,28,14,44,18.60
2017,06,28,14,45,18.60
2017,06,28,14,46,18.60
2017,06,28,14,47,18.70
2017,06,28,14,48,18.70
2017,06,28,14,49,18.70
2017,06,28,14,50,18.70
2017,06,28,14,51,18.80
2017,06,28,14,52,18.80
2017,06,28,14,53,18.80
2017,06,28,14,54,18.80
2017,06,28,14,55,18.80
2017,06,28,14,56,18.70
2017,06,28,14,57,18.70
2017,06,28,14,58,18.70
2017,06,28,14,59,18.70
2017,06,28,15,00,18.70
2017,06,28,15,01,18.70
2017,06,28,15,02,18.70
2017,06,28,15,03,18.70
2017,06,28,15,04,18.70
2017,06,28,15,05,18.70
2017,06,28,15,06,18.70
2017,06,28,15,07,18.70
2017,06,28,15,08,18.70
2017,06,28,15,09,18.70
2017,06,28,15,10,18.70
2017,06,28,15,11,18.70
2017,06,28,15,12,18.70
2017,06,28,15,13,18.70
2017,06,28,15,14,18.70
2017,06,28,15,15,18.70
2017,06,28,15,16,18.80
2017,06,28,15,17,18.80
2017,06,28,15,18,18.90
2017,06,28,15,19,18.90
2017,06,28,15,20,18.90
2017,06,28,15,21,18.90
2017,06,28,15,22,18.90
2017,06,28,15,23,19.10
2017,06,28,15,24,19.10
2017,06,28,15,25,19.10
2017,06,28,15,26,19.10
2017,06,28,15,27,19.10
2017,06,28,15,28,19.20
2017,06,28,15,29,19.20
2017,06,28,15,30,19.30
2017,06,28,15,31,19.30
2017,06,28,15,32,19.30
2017,06,28,15,33,19.30
2017,06,28,15,34,19.30
2017,06,28,15,35,19.30
2017,06,28,15,36,19.40
2017,06,28,15,37,19.40
2017,06,28,15,38,19.30
2017,06,28,15,39,19.30
2017,06,28,15,40,19.30
2017,06,28,15,41,19.30
2017,06,28,15,42,19.30
2017,06,28,15,43,19.30
2017,06,28,15,44,19.30
2017,06,28,15,45,19.30
2017,06,28,15,46,19.30
2017,06,28,15,47,19.20
2017,06,28,15,49,19.20
2017,06,28,15,50,19.20
2017,06,28,15,52,19.10
2017,06,28,15,53,19.10
2017,06,28,15,54,19.10
2017,06,28,15,56,19.10
2017,06,28,15,57,19.10
2017,06,28,15,58,19.10
2017,06,28,15,59,19.10
2017,06,28,16,01,19.10
2017,06,28,16,02,19.10
2017,06,28,16,03,19.10
2017,06,28,16,04,19.10
2017,06,28,16,06,19.10
2017,06,28,16,07,19.20
2017,06,28,16,08,19.30
2017,06,28,16,09,19.30
2017,06,28,16,11,19.50
2017,06,28,16,12,19.50
2017,06,28,16,13,19.40
2017,06,28,16,14,19.40
2017,06,28,16,16,19.20
2017,06,28,16,17,19.20
2017,06,28,16,18,19.20
2017,06,28,16,19,19.20
2017,06,28,16,21,19.10
2017,06,28,16,22,19.10
2017,06,28,16,23,19.10
2017,06,28,16,24,19.10
2017,06,28,16,26,18.90
2017,06,28,16,27,18.90
2017,06,28,16,28,18.90
2017,06,28,16,29,18.90
2017,06,28,16,31,18.90
2017,06,28,16,32,18.90
2017,06,28,16,33,18.90
2017,06,28,16,34,18.90
2017,06,28,16,36,18.90
2017,06,28,16,37,18.90
2017,06,28,16,38,18.90
2017,06,28,16,39,18.90
2017,06,28,16,41,18.90
2017,06,28,16,42,18.90
2017,06,28,16,43,18.90
2017,06,28,16,44,19.10
2017,06,28,16,46,19.10
2017,06,28,16,47,19.10
2017,06,28,16,48,19.10
2017,06,28,16,49,19.10
2017,06,28,16,51,19.10
2017,06,28,16,52,19.10
2017,06,28,16,53,19.10
2017,06,28,16,54,19.10
2017,06,28,16,56,19.10
2017,06,28,16,57,19.10
2017,06,28,16,58,19.10
2017,06,28,16,59,19.10
2017,06,28,17,01,19.10
2017,06,28,17,02,19.10
2017,06,28,17,03,19.10
2017,06,28,17,04,19.10
2017,06,28,17,06,19.10
2017,06,28,17,07,19.10
2017,06,28,17,08,19.10
2017,06,28,17,09,19.10
2017,06,28,17,11,18.90
2017,06,28,17,12,18.90
2017,06,28,17,13,18.90
2017,06,28,17,14,18.90
2017,06,28,17,15,18.90
2017,06,28,17,16,18.90
2017,06,28,17,17,18.90
2017,06,28,17,18,18.90
2017,06,28,17,19,18.90
2017,06,28,17,20,18.90
2017,06,28,17,21,18.90
2017,06,28,17,22,18.90
2017,06,28,17,23,18.90
2017,06,28,17,24,18.90
2017,06,28,17,25,18.90
2017,06,28,17,26,18.90
2017,06,28,17,27,18.90
2017,06,28,17,28,18.90
2017,06,28,17,29,18.90
2017,06,28,17,30,18.90
2017,06,28,17,31,18.90
2017,06,28,17,32,18.80
2017,06,28,17,33,18.70
2017,06,28,17,34,18.70
2017,06,28,17,35,18.70
2017,06,28,17,36,18.70
2017,06,28,17,37,18.60
2017,06,28,17,38,18.60
2017,06,28,17,39,18.60
2017,06,28,17,40,18.60
2017,06,28,17,41,18.60
2017,06,28,17,42,18.60
2017,06,28,17,43,18.60
2017,06,28,17,44,18.60
2017,06,28,17,45,18.60
2017,06,28,17,46,18.70
2017,06,28,17,47,18.70
2017,06,28,17,48,18.70
2017,06,28,17,49,18.70
2017,06,28,17,50,18.70
2017,06,28,17,51,18.80
2017,06,28,17,52,18.80
2017,06,28,17,53,18.80
2017,06,28,17,54,18.80
2017,06,28,17,55,18.70
2017,06,28,17,56,18.70
2017,06,28,17,57,18.70
2017,06,28,17,58,18.60
2017,06,28,17,59,18.60
2017,06,28,18,00,18.60
2017,06,28,18,01,18.60
2017,06,28,18,02,18.60
2017,06,28,18,03,18.60
2017,06,28,18,04,18.60
2017,06,28,18,05,18.60
2017,06,28,18,06,18.60
2017,06,28,18,07,18.60
2017,06,28,18,08,18.60
2017,06,28,18,09,18.50
2017,06,28,18,10,18.50
2017,06,28,18,11,18.40
2017,06,28,18,12,18.40
2017,06,28,18,13,18.40
2017,06,28,18,14,18.40
2017,06,28,18,15,18.40
2017,06,28,18,16,18.50
2017,06,28,18,17,18.50
2017,06,28,18,18,18.50
2017,06,28,18,19,18.60
2017,06,28,18,20,18.60
2017,06,28,18,21,18.60
2017,06,28,18,22,18.60
2017,06,28,18,23,18.60
2017,06,28,18,24,18.60
2017,06,28,18,25,18.60
2017,06,28,18,26,18.60
2017,06,28,18,27,18.60
2017,06,28,18,28,18.60
2017,06,28,18,29,18.60
2017,06,28,18,30,18.70
2017,06,28,18,31,18.70
2017,06,28,18,32,18.70
2017,06,28,18,33,18.70
2017,06,28,18,34,18.70
2017,06,28,18,35,18.70
2017,06,28,18,36,18.70
2017,06,28,18,37,18.70
2017,06,28,18,38,18.70
2017,06,28,18,39,18.70
2017,06,28,18,40,18.70
2017,06,28,18,41,18.70
2017,06,28,18,43,18.70
2017,06,28,18,44,18.70
2017,06,28,18,46,18.60
2017,06,28,18,47,18.60
2017,06,28,18,48,18.50
2017,06,28,18,49,18.40
2017,06,28,18,51,18.20
2017,06,28,18,52,18.20
2017,06,28,18,53,18.20
2017,06,28,18,54,18.10
2017,06,28,18,56,18.10
2017,06,28,18,57,18.10
2017,06,28,18,58,18.10
2017,06,28,18,59,18.10
2017,06,28,19,01,18.20
2017,06,28,19,02,18.20
2017,06,28,19,03,18.20
2017,06,28,19,04,18.20
2017,06,28,19,06,18.20
2017,06,28,19,07,18.20
2017,06,28,19,08,18.20
2017,06,28,19,09,18.20
2017,06,28,19,11,18.20
2017,06,28,19,12,18.10
2017,06,28,19,13,18.10
2017,06,28,19,14,18.10
2017,06,28,19,16,18.10
2017,06,28,19,17,17.90
2017,06,28,19,18,17.90
2017,06,28,19,19,17.90
2017,06,28,19,21,17.90
2017,06,28,19,22,17.90
2017,06,28,19,23,17.90
2017,06,28,19,24,17.90
2017,06,28,19,26,17.90
2017,06,28,19,27,17.90
2017,06,28,19,28,17.80
2017,06,28,19,29,17.70
2017,06,28,19,31,17.60
2017,06,28,19,32,17.50
2017,06,28,19,33,17.40
2017,06,28,19,34,17.40
2017,06,28,19,36,17.30
2017,06,28,19,37,17.20
2017,06,28,19,38,17.10
2017,06,28,19,39,17.10
2017,06,28,19,41,17.10
2017,06,28,19,42,17.10
2017,06,28,19,43,17.10
2017,06,28,19,44,17.10
2017,06,28,19,46,17.20
2017,06,28,19,47,17.10
2017,06,28,19,48,17.10
2017,06,28,19,49,17.10
2017,06,28,19,51,17.00
2017,06,28,19,52,16.90
2017,06,28,19,53,16.90
2017,06,28,19,54,16.80
2017,06,28,19,56,16.70
2017,06,28,19,57,16.70
2017,06,28,19,58,16.70
2017,06,28,19,59,16.70
2017,06,28,20,01,16.60
2017,06,28,20,02,16.40
2017,06,28,20,03,16.40
2017,06,28,20,04,16.30
2017,06,28,20,06,16.30
2017,06,28,20,07,16.20
2017,06,28,20,08,16.20
2017,06,28,20,09,16.10
2017,06,28,20,11,16.10
2017,06,28,20,12,16.10
2017,06,28,20,13,15.90
2017,06,28,20,14,15.80
2017,06,28,20,15,15.80
2017,06,28,20,16,15.80
2017,06,28,20,17,15.70
2017,06,28,20,18,15.60
2017,06,28,20,19,15.60
2017,06,28,20,20,15.50
2017,06,28,20,21,15.40
2017,06,28,20,22,15.30
2017,06,28,20,23,15.30
2017,06,28,20,24,15.10
2017,06,28,20,25,14.90
2017,06,28,20,26,14.80
2017,06,28,20,27,14.80
2017,06,28,20,28,14.60
2017,06,28,20,29,14.50